Time,TemperatureF,DewpointF,PressureIn,WindDirection,WindDirectionDegrees,WindSpeedMPH,WindSpeedGustMPH,Humidity,HourlyPrecipIn,Conditions,Clouds,dailyrainin,SoftwareType,DateUTC
2013-05-12 00:01:00,61.2,58.8,29.76,WNW,302,1.0,2.0,92,0.00,,,0.49,meteohub,2013-05-12 04:01:00,
2013-05-12 00:06:00,61.2,58.5,29.77,WNW,302,1.0,2.0,91,0.00,,,0.00,meteohub,2013-05-12 04:06:00,
2013-05-12 00:11:00,61.2,58.5,29.78,West,272,0.0,2.0,91,0.00,,,0.00,meteohub,2013-05-12 04:11:00,
2013-05-12 00:16:00,61.0,58.6,29.77,West,272,1.0,2.0,92,0.00,,,0.00,meteohub,2013-05-12 04:16:00,
2013-05-12 00:22:00,60.8,58.5,29.76,West,272,1.0,2.0,92,0.00,,,0.00,meteohub,2013-05-12 04:22:00,
2013-05-12 00:27:00,60.6,57.9,29.76,WNW,300,1.0,2.0,91,0.00,,,0.00,meteohub,2013-05-12 04:27:00,
2013-05-12 00:32:00,60.4,57.6,29.75,NW,309,2.0,2.0,90,0.00,,,0.00,meteohub,2013-05-12 04:32:00,
2013-05-12 00:37:00,60.4,57.2,29.75,NW,309,1.0,3.0,89,0.00,,,0.00,meteohub,2013-05-12 04:37:00,
2013-05-12 00:42:00,60.3,57.4,29.77,NW,309,0.0,3.0,90,0.00,,,0.00,meteohub,2013-05-12 04:42:00,
2013-05-12 00:47:00,60.1,57.2,29.76,NW,309,1.0,3.0,90,0.00,,,0.00,meteohub,2013-05-12 04:47:00,
2013-05-12 00:52:00,59.9,56.7,29.76,NW,305,2.0,2.0,89,0.00,,,0.00,meteohub,2013-05-12 04:52:00,
2013-05-12 00:57:00,59.7,56.1,29.76,NW,306,1.0,3.0,88,0.00,,,0.00,meteohub,2013-05-12 04:57:00,
2013-05-12 01:02:00,59.7,55.8,29.76,WNW,300,2.0,3.0,87,0.00,,,0.00,meteohub,2013-05-12 05:02:00,
2013-05-12 01:07:00,59.7,55.8,29.76,WNW,300,1.0,3.0,87,0.00,,,0.00,meteohub,2013-05-12 05:07:00,
2013-05-12 01:12:00,59.5,55.6,29.75,WNW,300,2.0,2.0,87,0.00,,,0.00,meteohub,2013-05-12 05:12:00,
2013-05-12 01:17:00,59.5,55.0,29.75,WNW,300,1.0,3.0,85,0.00,,,0.00,meteohub,2013-05-12 05:17:00,
2013-05-12 01:22:00,59.5,55.0,29.75,WNW,290,1.0,3.0,85,0.00,,,0.00,meteohub,2013-05-12 05:22:00,
2013-05-12 01:27:00,59.4,54.9,29.75,WNW,290,0.0,3.0,85,0.00,,,0.00,meteohub,2013-05-12 05:27:00,
2013-05-12 01:32:00,59.4,54.9,29.74,WNW,289,0.0,3.0,85,0.00,,,0.00,meteohub,2013-05-12 05:32:00,
2013-05-12 01:37:00,59.4,55.2,29.75,WNW,289,0.0,1.0,86,0.00,,,0.00,meteohub,2013-05-12 05:37:00,
2013-05-12 01:42:00,59.2,55.0,29.75,WNW,289,0.0,1.0,86,0.00,,,0.00,meteohub,2013-05-12 05:42:00,
2013-05-12 01:47:00,58.8,55.0,29.75,WNW,288,1.0,2.0,87,0.00,,,0.00,meteohub,2013-05-12 05:47:00,
2013-05-12 01:52:00,58.8,54.7,29.74,WNW,300,1.0,2.0,86,0.00,,,0.00,meteohub,2013-05-12 05:52:00,
2013-05-12 01:57:00,58.8,54.7,29.74,NW,306,1.0,2.0,86,0.00,,,0.00,meteohub,2013-05-12 05:57:00,
2013-05-12 02:02:00,58.6,54.5,29.75,WNW,300,1.0,2.0,86,0.00,,,0.00,meteohub,2013-05-12 06:02:00,
2013-05-12 02:07:00,58.6,54.5,29.75,WNW,300,1.0,2.0,86,0.00,,,0.00,meteohub,2013-05-12 06:07:00,
2013-05-12 02:12:00,58.6,54.1,29.75,WNW,287,1.0,2.0,85,0.00,,,0.00,meteohub,2013-05-12 06:12:00,
2013-05-12 02:17:00,58.5,54.3,29.75,West,279,1.0,2.0,86,0.00,,,0.00,meteohub,2013-05-12 06:17:00,
2013-05-12 02:22:00,58.5,54.3,29.75,WNW,297,0.0,2.0,86,0.00,,,0.00,meteohub,2013-05-12 06:22:00,
2013-05-12 02:27:00,58.3,54.1,29.74,WNW,301,2.0,3.0,86,0.00,,,0.00,meteohub,2013-05-12 06:27:00,
2013-05-12 02:32:00,58.3,54.1,29.75,WNW,301,1.0,3.0,86,0.00,,,0.00,meteohub,2013-05-12 06:32:00,
2013-05-12 02:37:00,58.3,54.1,29.74,WNW,301,1.0,3.0,86,0.00,,,0.00,meteohub,2013-05-12 06:37:00,
2013-05-12 02:42:00,58.1,54.0,29.74,WNW,301,1.0,2.0,86,0.00,,,0.00,meteohub,2013-05-12 06:42:00,
2013-05-12 02:47:00,57.9,53.8,29.74,WNW,301,2.0,2.0,86,0.00,,,0.00,meteohub,2013-05-12 06:47:00,
2013-05-12 02:52:00,57.9,53.4,29.74,West,268,1.0,3.0,85,0.00,,,0.00,meteohub,2013-05-12 06:52:00,
2013-05-12 02:57:00,57.9,53.4,29.74,West,268,1.0,3.0,85,0.00,,,0.00,meteohub,2013-05-12 06:57:00,
2013-05-12 03:02:00,57.9,53.8,29.74,West,268,0.0,3.0,86,0.00,,,0.00,meteohub,2013-05-12 07:02:00,
2013-05-12 03:07:00,57.7,53.6,29.74,West,268,1.0,2.0,86,0.00,,,0.00,meteohub,2013-05-12 07:07:00,
2013-05-12 03:12:00,57.7,53.6,29.74,West,268,1.0,2.0,86,0.00,,,0.00,meteohub,2013-05-12 07:12:00,
2013-05-12 03:17:00,57.7,53.6,29.75,West,268,1.0,2.0,86,0.00,,,0.00,meteohub,2013-05-12 07:17:00,
2013-05-12 03:22:00,57.6,53.4,29.75,West,268,1.0,2.0,86,0.00,,,0.00,meteohub,2013-05-12 07:22:00,
2013-05-12 03:27:00,57.6,53.8,29.74,WNW,298,1.0,2.0,87,0.00,,,0.00,meteohub,2013-05-12 07:27:00,
2013-05-12 03:32:00,57.6,53.4,29.74,WNW,297,1.0,2.0,86,0.00,,,0.00,meteohub,2013-05-12 07:32:00,
2013-05-12 03:37:00,57.4,53.2,29.73,WNW,297,1.0,2.0,86,0.00,,,0.00,meteohub,2013-05-12 07:37:00,
2013-05-12 03:42:00,57.4,53.2,29.73,WNW,302,2.0,2.0,86,0.00,,,0.00,meteohub,2013-05-12 07:42:00,
2013-05-12 03:47:00,57.4,53.2,29.73,WNW,302,1.0,2.0,86,0.00,,,0.00,meteohub,2013-05-12 07:47:00,
2013-05-12 03:52:00,57.2,53.1,29.74,NW,304,1.0,2.0,86,0.00,,,0.00,meteohub,2013-05-12 07:52:00,
2013-05-12 03:57:00,57.2,53.1,29.74,NW,304,1.0,2.0,86,0.00,,,0.00,meteohub,2013-05-12 07:57:00,
2013-05-12 04:02:00,57.0,53.2,29.74,NW,304,0.0,2.0,87,0.00,,,0.00,meteohub,2013-05-12 08:02:00,
2013-05-12 04:07:00,57.0,52.9,29.74,NW,304,0.0,2.0,86,0.00,,,0.00,meteohub,2013-05-12 08:07:00,
2013-05-12 04:12:00,56.8,53.1,29.74,WNW,301,2.0,3.0,87,0.00,,,0.00,meteohub,2013-05-12 08:12:00,
2013-05-12 04:17:00,56.8,53.1,29.75,WNW,300,3.0,3.0,87,0.00,,,0.00,meteohub,2013-05-12 08:17:00,
2013-05-12 04:22:00,56.7,52.2,29.74,WNW,300,3.0,4.0,85,0.00,,,0.00,meteohub,2013-05-12 08:22:00,
2013-05-12 04:27:00,56.7,51.6,29.74,NW,310,3.0,4.0,83,0.00,,,0.00,meteohub,2013-05-12 08:27:00,
2013-05-12 04:32:00,56.7,51.3,29.75,WNW,288,1.0,4.0,82,0.00,,,0.00,meteohub,2013-05-12 08:32:00,
2013-05-12 04:37:00,56.7,51.8,29.75,WNW,297,2.0,4.0,84,0.00,,,0.00,meteohub,2013-05-12 08:37:00,
2013-05-12 04:42:00,56.3,50.9,29.75,NW,308,2.0,4.0,82,0.00,,,0.00,meteohub,2013-05-12 08:42:00,
2013-05-12 04:47:00,56.1,50.4,29.75,NW,315,2.0,4.0,81,0.00,,,0.00,meteohub,2013-05-12 08:47:00,
2013-05-12 04:52:00,55.9,49.8,29.75,NW,308,3.0,4.0,80,0.00,,,0.00,meteohub,2013-05-12 08:52:00,
2013-05-12 04:57:00,55.8,49.3,29.75,WNW,292,2.0,4.0,79,0.00,,,0.00,meteohub,2013-05-12 08:57:00,
2013-05-12 05:02:00,55.6,49.5,29.75,WNW,301,1.0,4.0,80,0.00,,,0.00,meteohub,2013-05-12 09:02:00,
2013-05-12 05:07:00,55.6,49.5,29.76,NW,309,3.0,4.0,80,0.00,,,0.00,meteohub,2013-05-12 09:07:00,
2013-05-12 05:12:00,55.2,49.1,29.77,WNW,293,2.0,4.0,80,0.00,,,0.00,meteohub,2013-05-12 09:12:00,
2013-05-12 05:17:00,55.0,48.9,29.77,WNW,297,2.0,4.0,80,0.00,,,0.00,meteohub,2013-05-12 09:17:00,
2013-05-12 05:22:00,55.0,48.9,29.77,NW,306,2.0,4.0,80,0.00,,,0.00,meteohub,2013-05-12 09:22:00,
2013-05-12 05:27:00,54.9,48.2,29.76,NW,309,1.0,3.0,78,0.00,,,0.00,meteohub,2013-05-12 09:27:00,
2013-05-12 05:32:00,54.9,48.7,29.76,NW,310,2.0,4.0,80,0.00,,,0.00,meteohub,2013-05-12 09:32:00,
2013-05-12 05:37:00,54.9,48.7,29.76,NW,310,2.0,4.0,80,0.00,,,0.00,meteohub,2013-05-12 09:37:00,
2013-05-12 05:42:00,54.7,48.6,29.77,NW,308,1.0,4.0,80,0.00,,,0.00,meteohub,2013-05-12 09:42:00,
2013-05-12 05:47:00,54.5,48.4,29.77,NW,308,0.0,3.0,80,0.00,,,0.00,meteohub,2013-05-12 09:47:00,
2013-05-12 05:52:00,54.1,48.0,29.77,NW,308,1.0,3.0,80,0.00,,,0.00,meteohub,2013-05-12 09:52:00,
2013-05-12 05:57:00,54.0,48.2,29.78,NW,308,1.0,2.0,81,0.00,,,0.00,meteohub,2013-05-12 09:57:00,
2013-05-12 06:02:00,53.8,48.4,29.77,NW,308,1.0,2.0,82,0.00,,,0.00,meteohub,2013-05-12 10:02:00,
2013-05-12 06:07:00,53.6,48.2,29.77,NW,308,0.0,2.0,82,0.00,,,0.00,meteohub,2013-05-12 10:07:00,
2013-05-12 06:12:00,53.4,48.4,29.78,NW,308,0.0,1.0,83,0.00,,,0.00,meteohub,2013-05-12 10:12:00,
2013-05-12 06:17:00,53.2,48.2,29.78,NW,308,0.0,1.0,83,0.00,,,0.00,meteohub,2013-05-12 10:17:00,
2013-05-12 06:22:00,52.9,47.8,29.78,NW,308,0.0,1.0,83,0.00,,,0.00,meteohub,2013-05-12 10:22:00,
2013-05-12 06:27:00,52.5,48.2,29.78,NW,308,0.0,1.0,85,0.00,,,0.00,meteohub,2013-05-12 10:27:00,
2013-05-12 06:32:00,52.5,48.4,29.78,NW,308,0.0,1.0,86,0.00,,,0.00,meteohub,2013-05-12 10:32:00,
2013-05-12 06:37:00,52.3,48.2,29.78,NW,308,0.0,1.0,86,0.00,,,0.00,meteohub,2013-05-12 10:37:00,
2013-05-12 06:42:00,52.2,48.4,29.78,NW,308,0.0,1.0,87,0.00,,,0.00,meteohub,2013-05-12 10:42:00,
2013-05-12 06:47:00,52.0,48.2,29.78,NW,308,0.0,1.0,87,0.00,,,0.00,meteohub,2013-05-12 10:47:00,
2013-05-12 06:52:00,51.8,47.5,29.77,NW,308,0.0,1.0,85,0.00,,,0.00,meteohub,2013-05-12 10:52:00,
2013-05-12 06:57:00,51.8,47.7,29.77,NW,308,0.0,1.0,86,0.00,,,0.00,meteohub,2013-05-12 10:57:00,
2013-05-12 07:02:00,52.0,48.2,29.77,NW,308,1.0,1.0,87,0.00,,,0.00,meteohub,2013-05-12 11:02:00,
2013-05-12 07:07:00,52.2,48.4,29.77,NW,306,1.0,3.0,87,0.00,,,0.00,meteohub,2013-05-12 11:07:00,
2013-05-12 07:12:00,52.3,48.2,29.77,NW,306,1.0,3.0,86,0.00,,,0.00,meteohub,2013-05-12 11:12:00,
2013-05-12 07:17:00,52.5,48.4,29.77,NW,306,0.0,3.0,86,0.00,,,0.00,meteohub,2013-05-12 11:17:00,
2013-05-12 07:22:00,52.9,48.6,29.77,West,272,2.0,2.0,85,0.00,,,0.00,meteohub,2013-05-12 11:22:00,
2013-05-12 07:27:00,53.2,48.6,29.77,West,268,1.0,3.0,84,0.00,,,0.00,meteohub,2013-05-12 11:27:00,
2013-05-12 07:32:00,53.8,48.4,29.77,West,275,2.0,3.0,82,0.00,,,0.00,meteohub,2013-05-12 11:32:00,
2013-05-12 07:37:00,54.0,48.6,29.77,West,275,1.0,3.0,82,0.00,,,0.00,meteohub,2013-05-12 11:37:00,
2013-05-12 07:42:00,54.1,48.0,29.77,WNW,296,1.0,3.0,80,0.00,,,0.00,meteohub,2013-05-12 11:42:00,
2013-05-12 07:47:00,54.3,48.2,29.77,West,268,1.0,2.0,80,0.00,,,0.00,meteohub,2013-05-12 11:47:00,
2013-05-12 07:52:00,54.7,48.6,29.77,West,277,1.0,2.0,80,0.00,,,0.00,meteohub,2013-05-12 11:52:00,
2013-05-12 07:57:00,54.9,48.7,29.77,West,268,1.0,2.0,80,0.00,,,0.00,meteohub,2013-05-12 11:57:00,
2013-05-12 08:02:00,55.0,49.3,29.77,West,277,2.0,3.0,81,0.00,,,0.00,meteohub,2013-05-12 12:02:00,
2013-05-12 08:07:00,55.2,49.1,29.77,WNW,290,2.0,4.0,80,0.00,,,0.00,meteohub,2013-05-12 12:07:00,
2013-05-12 08:12:00,55.6,49.8,29.77,WNW,295,2.0,4.0,81,0.00,,,0.00,meteohub,2013-05-12 12:12:00,
2013-05-12 08:17:00,55.8,49.6,29.77,West,281,2.0,4.0,80,0.00,,,0.00,meteohub,2013-05-12 12:17:00,
2013-05-12 08:22:00,56.1,49.6,29.78,West,273,3.0,4.0,79,0.00,,,0.00,meteohub,2013-05-12 12:22:00,
2013-05-12 08:27:00,56.5,50.0,29.78,WNW,286,5.0,5.0,79,0.00,,,0.00,meteohub,2013-05-12 12:27:00,
2013-05-12 08:32:00,56.7,50.2,29.78,WNW,302,3.0,6.0,79,0.00,,,0.00,meteohub,2013-05-12 12:32:00,
2013-05-12 08:37:00,56.8,49.6,29.78,West,267,1.0,6.0,77,0.00,,,0.00,meteohub,2013-05-12 12:37:00,
2013-05-12 08:42:00,56.8,49.3,29.78,WNW,292,2.0,6.0,76,0.00,,,0.00,meteohub,2013-05-12 12:42:00,
2013-05-12 08:47:00,57.4,49.8,29.78,West,277,2.0,7.0,76,0.00,,,0.00,meteohub,2013-05-12 12:47:00,
2013-05-12 08:52:00,57.6,49.3,29.79,WNW,289,4.0,7.0,74,0.00,,,0.00,meteohub,2013-05-12 12:52:00,
2013-05-12 08:57:00,57.6,49.3,29.79,WNW,301,3.0,7.0,74,0.00,,,0.00,meteohub,2013-05-12 12:57:00,
2013-05-12 09:02:00,57.6,48.9,29.79,WNW,290,2.0,8.0,73,0.00,,,0.00,meteohub,2013-05-12 13:02:00,
2013-05-12 09:07:00,57.6,49.6,29.79,NW,306,2.0,8.0,75,0.00,,,0.00,meteohub,2013-05-12 13:07:00,
2013-05-12 09:12:00,57.9,49.3,29.79,NW,314,3.0,8.0,73,0.00,,,0.00,meteohub,2013-05-12 13:12:00,
2013-05-12 09:17:00,58.1,48.7,29.79,NW,325,4.0,6.0,71,0.00,,,0.00,meteohub,2013-05-12 13:17:00,
2013-05-12 09:22:00,58.1,48.7,29.79,NW,314,4.0,7.0,71,0.00,,,0.00,meteohub,2013-05-12 13:22:00,
2013-05-12 09:27:00,58.3,49.6,29.79,NW,324,2.0,7.0,73,0.00,,,0.00,meteohub,2013-05-12 13:27:00,
2013-05-12 09:32:00,58.6,50.0,29.79,WNW,287,2.0,7.0,73,0.00,,,0.00,meteohub,2013-05-12 13:32:00,
2013-05-12 09:37:00,59.2,49.5,29.79,WNW,294,3.0,6.0,70,0.00,,,0.00,meteohub,2013-05-12 13:37:00,
2013-05-12 09:42:00,59.4,47.1,29.79,NW,304,3.0,6.0,64,0.00,,,0.00,meteohub,2013-05-12 13:42:00,
2013-05-12 09:47:00,59.2,47.5,29.79,NW,310,4.0,6.0,65,0.00,,,0.00,meteohub,2013-05-12 13:47:00,
2013-05-12 09:52:00,59.9,47.7,29.79,NW,306,2.0,6.0,64,0.00,,,0.00,meteohub,2013-05-12 13:52:00,
2013-05-12 09:57:00,60.3,48.4,29.79,WNW,286,3.0,6.0,65,0.00,,,0.00,meteohub,2013-05-12 13:57:00,
2013-05-12 10:02:00,60.1,47.8,29.79,WNW,298,5.0,6.0,64,0.00,,,0.00,meteohub,2013-05-12 14:02:00,
2013-05-12 10:07:00,60.6,46.6,29.80,NW,309,5.0,7.0,60,0.00,,,0.00,meteohub,2013-05-12 14:07:00,
2013-05-12 10:12:00,60.8,48.9,29.80,WNW,301,3.0,10.0,65,0.00,,,0.00,meteohub,2013-05-12 14:12:00,
2013-05-12 10:17:00,61.0,47.8,29.80,WNW,298,3.0,10.0,62,0.00,,,0.00,meteohub,2013-05-12 14:17:00,
2013-05-12 10:22:00,61.2,45.9,29.80,NW,309,4.0,10.0,57,0.00,,,0.00,meteohub,2013-05-12 14:22:00,
2013-05-12 10:27:00,60.6,44.8,29.80,NW,306,4.0,7.0,56,0.00,,,0.00,meteohub,2013-05-12 14:27:00,
2013-05-12 10:32:00,59.9,44.6,29.80,West,276,5.0,8.0,57,0.00,,,0.00,meteohub,2013-05-12 14:32:00,
2013-05-12 10:37:00,59.4,43.2,29.81,WSW,245,5.0,8.0,55,0.00,,,0.00,meteohub,2013-05-12 14:37:00,
2013-05-12 10:42:00,59.2,43.0,29.81,West,279,4.0,8.0,55,0.00,,,0.00,meteohub,2013-05-12 14:42:00,
2013-05-12 10:47:00,60.1,43.9,29.81,West,262,4.0,8.0,55,0.00,,,0.00,meteohub,2013-05-12 14:47:00,
2013-05-12 10:52:00,59.2,42.6,29.81,WSW,246,4.0,9.0,54,0.00,,,0.00,meteohub,2013-05-12 14:52:00,
2013-05-12 10:57:00,59.0,45.1,29.81,West,281,3.0,9.0,60,0.00,,,0.00,meteohub,2013-05-12 14:57:00,
2013-05-12 11:02:00,59.2,40.6,29.81,West,274,8.0,9.0,50,0.00,,,0.00,meteohub,2013-05-12 15:02:00,
2013-05-12 11:07:00,59.5,41.4,29.82,WNW,298,4.0,9.0,51,0.00,,,0.00,meteohub,2013-05-12 15:07:00,
2013-05-12 11:12:00,59.7,41.0,29.82,West,263,6.0,9.0,50,0.00,,,0.00,meteohub,2013-05-12 15:12:00,
2013-05-12 11:17:00,59.7,42.6,29.82,West,259,3.0,9.0,53,0.00,,,0.00,meteohub,2013-05-12 15:17:00,
2013-05-12 11:22:00,60.4,41.7,29.82,WNW,302,6.0,9.0,50,0.00,,,0.00,meteohub,2013-05-12 15:22:00,
2013-05-12 11:27:00,61.0,38.3,29.82,WNW,295,5.0,9.0,43,0.00,,,0.00,meteohub,2013-05-12 15:27:00,
2013-05-12 11:32:00,59.7,36.5,29.82,West,265,7.0,9.0,42,0.00,,,0.00,meteohub,2013-05-12 15:32:00,
2013-05-12 11:37:00,59.7,35.4,29.82,WSW,248,6.0,9.0,40,0.00,,,0.00,meteohub,2013-05-12 15:37:00,
2013-05-12 11:42:00,58.1,34.5,29.82,SW,223,4.0,10.0,41,0.00,,,0.00,meteohub,2013-05-12 15:42:00,
2013-05-12 11:47:00,59.7,37.2,29.82,WNW,290,4.0,10.0,43,0.00,,,0.00,meteohub,2013-05-12 15:47:00,
2013-05-12 11:52:00,61.5,35.6,29.82,NW,304,3.0,10.0,38,0.00,,,0.00,meteohub,2013-05-12 15:52:00,
2013-05-12 11:57:00,61.5,35.1,29.82,SW,234,3.0,7.0,37,0.00,,,0.00,meteohub,2013-05-12 15:57:00,
2013-05-12 12:02:00,60.4,36.7,29.83,NW,313,6.0,8.0,41,0.00,,,0.00,meteohub,2013-05-12 16:02:00,
2013-05-12 12:07:00,59.7,33.4,29.82,West,267,3.0,8.0,37,0.00,,,0.00,meteohub,2013-05-12 16:07:00,
2013-05-12 12:12:00,57.9,33.1,29.82,WSW,252,4.0,11.0,39,0.00,,,0.00,meteohub,2013-05-12 16:12:00,
2013-05-12 12:17:00,59.5,31.8,29.82,West,275,6.0,11.0,35,0.00,,,0.00,meteohub,2013-05-12 16:17:00,
2013-05-12 12:22:00,60.3,31.8,29.83,WNW,301,8.0,11.0,34,0.00,,,0.00,meteohub,2013-05-12 16:22:00,
2013-05-12 12:27:00,59.2,34.9,29.83,West,271,5.0,9.0,40,0.00,,,0.00,meteohub,2013-05-12 16:27:00,
2013-05-12 12:32:00,59.2,32.2,29.82,West,278,3.0,9.0,36,0.00,,,0.00,meteohub,2013-05-12 16:32:00,
2013-05-12 12:37:00,59.5,29.7,29.82,NW,313,4.0,9.0,32,0.00,,,0.00,meteohub,2013-05-12 16:37:00,
2013-05-12 12:42:00,59.7,36.5,29.83,WNW,288,3.0,11.0,42,0.00,,,0.00,meteohub,2013-05-12 16:42:00,
2013-05-12 12:47:00,59.2,28.6,29.83,SW,219,4.0,11.0,31,0.00,,,0.00,meteohub,2013-05-12 16:47:00,
2013-05-12 12:52:00,57.9,31.1,29.83,SSW,209,3.0,11.0,36,0.00,,,0.00,meteohub,2013-05-12 16:52:00,
2013-05-12 12:57:00,57.6,32.7,29.83,WNW,286,2.0,9.0,39,0.00,,,0.00,meteohub,2013-05-12 16:57:00,
2013-05-12 13:02:00,58.5,34.9,29.83,WNW,294,6.0,7.0,41,0.00,,,0.00,meteohub,2013-05-12 17:02:00,
2013-05-12 13:07:00,59.2,33.6,29.83,NW,320,4.0,7.0,38,0.00,,,0.00,meteohub,2013-05-12 17:07:00,
2013-05-12 13:12:00,59.0,36.0,29.83,WSW,244,6.0,7.0,42,0.00,,,0.00,meteohub,2013-05-12 17:12:00,
2013-05-12 13:17:00,58.8,32.0,29.83,NW,322,5.0,8.0,36,0.00,,,0.00,meteohub,2013-05-12 17:17:00,
2013-05-12 13:22:00,58.6,31.8,29.83,West,259,4.0,8.0,36,0.00,,,0.00,meteohub,2013-05-12 17:22:00,
2013-05-12 13:27:00,58.5,31.6,29.83,WSW,241,4.0,9.0,36,0.00,,,0.00,meteohub,2013-05-12 17:27:00,
2013-05-12 13:32:00,58.5,31.6,29.83,West,275,4.0,9.0,36,0.00,,,0.00,meteohub,2013-05-12 17:32:00,
2013-05-12 13:37:00,58.5,32.9,29.83,NNW,329,4.0,9.0,38,0.00,,,0.00,meteohub,2013-05-12 17:37:00,
2013-05-12 13:42:00,59.4,33.1,29.84,NW,306,4.0,8.0,37,0.00,,,0.00,meteohub,2013-05-12 17:42:00,
2013-05-12 13:47:00,59.0,32.0,29.84,NW,309,4.0,8.0,36,0.00,,,0.00,meteohub,2013-05-12 17:47:00,
2013-05-12 13:52:00,58.6,31.8,29.84,WSW,249,5.0,8.0,36,0.00,,,0.00,meteohub,2013-05-12 17:52:00,
2013-05-12 13:57:00,58.5,34.2,29.84,NW,306,6.0,8.0,40,0.00,,,0.00,meteohub,2013-05-12 17:57:00,
2013-05-12 14:02:00,58.8,32.5,29.84,WNW,292,5.0,8.0,37,0.00,,,0.00,meteohub,2013-05-12 18:02:00,
2013-05-12 14:07:00,58.6,32.4,29.84,West,270,8.0,8.0,37,0.00,,,0.00,meteohub,2013-05-12 18:07:00,
2013-05-12 14:12:00,58.5,32.9,29.83,West,271,5.0,8.0,38,0.00,,,0.00,meteohub,2013-05-12 18:12:00,
2013-05-12 14:17:00,58.5,34.9,29.84,WSW,257,5.0,9.0,41,0.00,,,0.00,meteohub,2013-05-12 18:17:00,
2013-05-12 14:22:00,58.5,31.6,29.84,WSW,255,5.0,9.0,36,0.00,,,0.00,meteohub,2013-05-12 18:22:00,
2013-05-12 14:27:00,58.6,32.4,29.84,West,262,8.0,10.0,37,0.00,,,0.00,meteohub,2013-05-12 18:27:00,
2013-05-12 14:32:00,59.2,35.4,29.85,West,273,7.0,10.0,41,0.00,,,0.00,meteohub,2013-05-12 18:32:00,
2013-05-12 14:37:00,59.0,32.0,29.85,WNW,294,6.0,10.0,36,0.00,,,0.00,meteohub,2013-05-12 18:37:00,
2013-05-12 14:42:00,59.0,33.4,29.85,WNW,303,4.0,9.0,38,0.00,,,0.00,meteohub,2013-05-12 18:42:00,
2013-05-12 14:47:00,58.8,32.0,29.85,West,271,3.0,8.0,36,0.00,,,0.00,meteohub,2013-05-12 18:47:00,
2013-05-12 14:52:00,58.6,33.1,29.85,West,266,1.0,8.0,38,0.00,,,0.00,meteohub,2013-05-12 18:52:00,
2013-05-12 14:57:00,59.5,35.2,29.84,WNW,286,4.0,8.0,40,0.00,,,0.00,meteohub,2013-05-12 18:57:00,
2013-05-12 15:02:00,60.3,33.8,29.84,WNW,294,5.0,8.0,37,0.00,,,0.00,meteohub,2013-05-12 19:02:00,
2013-05-12 15:07:00,60.4,36.0,29.84,WNW,296,2.0,8.0,40,0.00,,,0.00,meteohub,2013-05-12 19:07:00,
2013-05-12 15:12:00,59.5,34.5,29.85,WSW,257,5.0,8.0,39,0.00,,,0.00,meteohub,2013-05-12 19:12:00,
2013-05-12 15:17:00,58.8,32.0,29.85,West,273,5.0,8.0,36,0.00,,,0.00,meteohub,2013-05-12 19:17:00,
2013-05-12 15:22:00,57.9,33.8,29.85,WNW,302,3.0,8.0,40,0.00,,,0.00,meteohub,2013-05-12 19:22:00,
2013-05-12 15:27:00,58.3,34.7,29.85,NW,305,3.0,7.0,41,0.00,,,0.00,meteohub,2013-05-12 19:27:00,
2013-05-12 15:32:00,58.8,35.8,29.85,WNW,296,3.0,7.0,42,0.00,,,0.00,meteohub,2013-05-12 19:32:00,
2013-05-12 15:37:00,59.5,34.0,29.85,WNW,303,5.0,9.0,38,0.00,,,0.00,meteohub,2013-05-12 19:37:00,
2013-05-12 15:42:00,58.6,31.8,29.84,WNW,294,2.0,9.0,36,0.00,,,0.00,meteohub,2013-05-12 19:42:00,
2013-05-12 15:47:00,58.5,34.9,29.84,NW,313,3.0,9.0,41,0.00,,,0.00,meteohub,2013-05-12 19:47:00,
2013-05-12 15:52:00,59.5,36.5,29.85,NW,306,5.0,8.0,42,0.00,,,0.00,meteohub,2013-05-12 19:52:00,
2013-05-12 15:57:00,59.2,34.9,29.84,West,263,2.0,7.0,40,0.00,,,0.00,meteohub,2013-05-12 19:57:00,
2013-05-12 16:02:00,59.4,35.6,29.84,West,279,2.0,6.0,41,0.00,,,0.00,meteohub,2013-05-12 20:02:00,
2013-05-12 16:07:00,59.2,33.6,29.84,West,278,4.0,7.0,38,0.00,,,0.00,meteohub,2013-05-12 20:07:00,
2013-05-12 16:12:00,59.2,34.9,29.84,West,268,5.0,7.0,40,0.00,,,0.00,meteohub,2013-05-12 20:12:00,
2013-05-12 16:17:00,59.2,33.6,29.85,West,273,3.0,7.0,38,0.00,,,0.00,meteohub,2013-05-12 20:17:00,
2013-05-12 16:22:00,59.2,34.2,29.85,WNW,283,4.0,7.0,39,0.00,,,0.00,meteohub,2013-05-12 20:22:00,
2013-05-12 16:27:00,59.0,34.2,29.85,NW,325,6.0,8.0,39,0.00,,,0.00,meteohub,2013-05-12 20:27:00,
2013-05-12 16:32:00,58.5,32.4,29.85,NW,304,6.0,8.0,37,0.00,,,0.00,meteohub,2013-05-12 20:32:00,
2013-05-12 16:37:00,58.1,32.5,29.85,WNW,292,3.0,8.0,38,0.00,,,0.00,meteohub,2013-05-12 20:37:00,
2013-05-12 16:42:00,58.3,34.0,29.86,WNW,300,3.0,8.0,40,0.00,,,0.00,meteohub,2013-05-12 20:42:00,
2013-05-12 16:47:00,58.5,32.9,29.86,NW,306,4.0,8.0,38,0.00,,,0.00,meteohub,2013-05-12 20:47:00,
2013-05-12 16:52:00,58.3,33.4,29.86,West,280,3.0,6.0,39,0.00,,,0.00,meteohub,2013-05-12 20:52:00,
2013-05-12 16:57:00,57.9,34.3,29.86,SW,229,6.0,6.0,41,0.00,,,0.00,meteohub,2013-05-12 20:57:00,
2013-05-12 17:02:00,57.6,30.7,29.86,WNW,282,3.0,7.0,36,0.00,,,0.00,meteohub,2013-05-12 21:02:00,
2013-05-12 17:07:00,57.4,33.3,29.86,NW,307,4.0,7.0,40,0.00,,,0.00,meteohub,2013-05-12 21:07:00,
2013-05-12 17:12:00,57.0,32.9,29.86,WSW,238,3.0,7.0,40,0.00,,,0.00,meteohub,2013-05-12 21:12:00,
2013-05-12 17:17:00,56.7,30.0,29.86,West,267,4.0,7.0,36,0.00,,,0.00,meteohub,2013-05-12 21:17:00,
2013-05-12 17:22:00,57.0,31.6,29.86,NW,314,3.0,7.0,38,0.00,,,0.00,meteohub,2013-05-12 21:22:00,
2013-05-12 17:27:00,57.4,32.0,29.87,WNW,295,7.0,9.0,38,0.00,,,0.00,meteohub,2013-05-12 21:27:00,
2013-05-12 17:32:00,57.6,30.7,29.87,WSW,243,7.0,9.0,36,0.00,,,0.00,meteohub,2013-05-12 21:32:00,
2013-05-12 17:37:00,57.6,32.2,29.87,West,267,3.0,11.0,38,0.00,,,0.00,meteohub,2013-05-12 21:37:00,
2013-05-12 17:42:00,57.7,33.6,29.87,WSW,253,5.0,11.0,40,0.00,,,0.00,meteohub,2013-05-12 21:42:00,
2013-05-12 17:47:00,57.6,32.2,29.87,West,277,4.0,11.0,38,0.00,,,0.00,meteohub,2013-05-12 21:47:00,
2013-05-12 17:52:00,57.2,29.1,29.87,West,277,3.0,8.0,34,0.00,,,0.00,meteohub,2013-05-12 21:52:00,
2013-05-12 17:57:00,56.8,28.8,29.87,SW,221,6.0,8.0,34,0.00,,,0.00,meteohub,2013-05-12 21:57:00,
2013-05-12 18:02:00,56.7,29.3,29.87,WSW,253,10.0,10.0,35,0.00,,,0.00,meteohub,2013-05-12 22:02:00,
2013-05-12 18:07:00,56.7,30.0,29.87,West,269,6.0,10.0,36,0.00,,,0.00,meteohub,2013-05-12 22:07:00,
2013-05-12 18:12:00,56.8,29.5,29.88,WSW,243,5.0,10.0,35,0.00,,,0.00,meteohub,2013-05-12 22:12:00,
2013-05-12 18:17:00,56.8,30.2,29.87,West,267,5.0,10.0,36,0.00,,,0.00,meteohub,2013-05-12 22:17:00,
2013-05-12 18:22:00,56.7,29.3,29.88,WSW,244,5.0,9.0,35,0.00,,,0.00,meteohub,2013-05-12 22:22:00,
2013-05-12 18:27:00,56.5,27.7,29.88,West,276,4.0,9.0,33,0.00,,,0.00,meteohub,2013-05-12 22:27:00,
2013-05-12 18:32:00,56.1,28.8,29.88,West,280,3.0,9.0,35,0.00,,,0.00,meteohub,2013-05-12 22:32:00,
2013-05-12 18:37:00,56.1,28.8,29.88,West,264,2.0,8.0,35,0.00,,,0.00,meteohub,2013-05-12 22:37:00,
2013-05-12 18:42:00,55.9,30.0,29.88,WSW,256,5.0,8.0,37,0.00,,,0.00,meteohub,2013-05-12 22:42:00,
2013-05-12 18:47:00,55.9,29.3,29.88,WNW,290,4.0,6.0,36,0.00,,,0.00,meteohub,2013-05-12 22:47:00,
2013-05-12 18:52:00,55.8,28.6,29.88,WSW,254,5.0,6.0,35,0.00,,,0.00,meteohub,2013-05-12 22:52:00,
2013-05-12 18:57:00,55.8,29.1,29.89,West,263,2.0,6.0,36,0.00,,,0.00,meteohub,2013-05-12 22:57:00,
2013-05-12 19:02:00,55.6,30.4,29.89,West,280,2.0,6.0,38,0.00,,,0.00,meteohub,2013-05-12 23:02:00,
2013-05-12 19:07:00,55.0,31.1,29.89,West,268,2.0,6.0,40,0.00,,,0.00,meteohub,2013-05-12 23:07:00,
2013-05-12 19:12:00,54.9,29.7,29.89,West,271,2.0,6.0,38,0.00,,,0.00,meteohub,2013-05-12 23:12:00,
2013-05-12 19:17:00,54.3,30.6,29.90,West,261,2.0,5.0,40,0.00,,,0.00,meteohub,2013-05-12 23:17:00,
2013-05-12 19:22:00,54.1,30.9,29.90,WSW,252,1.0,5.0,41,0.00,,,0.00,meteohub,2013-05-12 23:22:00,
2013-05-12 19:27:00,54.1,30.4,29.90,WSW,252,1.0,4.0,40,0.00,,,0.00,meteohub,2013-05-12 23:27:00,
2013-05-12 19:32:00,54.1,30.4,29.90,WSW,257,1.0,4.0,40,0.00,,,0.00,meteohub,2013-05-12 23:32:00,
2013-05-12 19:37:00,54.1,29.7,29.90,West,266,3.0,4.0,39,0.00,,,0.00,meteohub,2013-05-12 23:37:00,
2013-05-12 19:42:00,54.0,31.5,29.91,West,271,3.0,4.0,42,0.00,,,0.00,meteohub,2013-05-12 23:42:00,
2013-05-12 19:47:00,54.0,30.7,29.91,West,265,3.0,4.0,41,0.00,,,0.00,meteohub,2013-05-12 23:47:00,
2013-05-12 19:52:00,53.8,31.3,29.91,West,267,3.0,4.0,42,0.00,,,0.00,meteohub,2013-05-12 23:52:00,
2013-05-12 19:57:00,53.4,29.7,29.91,WSW,254,3.0,4.0,40,0.00,,,0.00,meteohub,2013-05-12 23:57:00,
2013-05-12 20:02:00,53.2,30.7,29.91,WSW,257,1.0,4.0,42,0.00,,,0.00,meteohub,2013-05-13 00:02:00,
2013-05-12 20:07:00,53.1,31.1,29.91,WSW,250,2.0,4.0,43,0.00,,,0.00,meteohub,2013-05-13 00:07:00,
2013-05-12 20:12:00,52.5,30.0,29.91,WSW,254,1.0,4.0,42,0.00,,,0.00,meteohub,2013-05-13 00:12:00,
2013-05-12 20:17:00,52.3,31.1,29.92,WSW,256,3.0,4.0,44,0.00,,,0.00,meteohub,2013-05-13 00:17:00,
2013-05-12 20:22:00,52.2,30.9,29.92,WSW,254,2.0,4.0,44,0.00,,,0.00,meteohub,2013-05-13 00:22:00,
2013-05-12 20:27:00,52.0,31.3,29.92,WSW,247,2.0,3.0,45,0.00,,,0.00,meteohub,2013-05-13 00:27:00,
2013-05-12 20:32:00,51.8,30.6,29.92,WSW,247,3.0,3.0,44,0.00,,,0.00,meteohub,2013-05-13 00:32:00,
2013-05-12 20:37:00,51.6,30.9,29.92,West,267,3.0,4.0,45,0.00,,,0.00,meteohub,2013-05-13 00:37:00,
2013-05-12 20:42:00,51.4,31.3,29.93,WSW,244,2.0,4.0,46,0.00,,,0.00,meteohub,2013-05-13 00:42:00,
2013-05-12 20:47:00,51.4,30.2,29.93,WSW,246,1.0,4.0,44,0.00,,,0.00,meteohub,2013-05-13 00:47:00,
2013-05-12 20:52:00,51.3,31.1,29.93,WSW,248,3.0,4.0,46,0.00,,,0.00,meteohub,2013-05-13 00:52:00,
2013-05-12 20:57:00,51.3,30.6,29.94,WSW,253,2.0,4.0,45,0.00,,,0.00,meteohub,2013-05-13 00:57:00,
2013-05-12 21:02:00,51.3,31.1,29.94,West,263,1.0,4.0,46,0.00,,,0.00,meteohub,2013-05-13 01:02:00,
2013-05-12 21:07:00,51.1,31.1,29.94,West,267,2.0,4.0,46,0.00,,,0.00,meteohub,2013-05-13 01:07:00,
2013-05-12 21:12:00,51.1,30.6,29.95,West,261,2.0,4.0,45,0.00,,,0.00,meteohub,2013-05-13 01:12:00,
2013-05-12 21:17:00,50.9,30.9,29.95,West,259,1.0,4.0,46,0.00,,,0.00,meteohub,2013-05-13 01:17:00,
2013-05-12 21:22:00,50.7,31.3,29.95,West,265,3.0,4.0,47,0.00,,,0.00,meteohub,2013-05-13 01:22:00,
2013-05-12 21:27:00,50.5,30.6,29.96,West,267,2.0,4.0,46,0.00,,,0.00,meteohub,2013-05-13 01:27:00,
2013-05-12 21:32:00,50.4,31.5,29.96,West,259,2.0,4.0,48,0.00,,,0.00,meteohub,2013-05-13 01:32:00,
2013-05-12 21:37:00,50.2,30.7,29.96,West,262,1.0,4.0,47,0.00,,,0.00,meteohub,2013-05-13 01:37:00,
2013-05-12 21:42:00,50.0,30.6,29.96,West,262,1.0,4.0,47,0.00,,,0.00,meteohub,2013-05-13 01:42:00,
2013-05-12 21:47:00,49.8,30.9,29.97,West,262,1.0,3.0,48,0.00,,,0.00,meteohub,2013-05-13 01:47:00,
2013-05-12 21:52:00,49.6,31.8,29.97,West,262,2.0,3.0,50,0.00,,,0.00,meteohub,2013-05-13 01:52:00,
2013-05-12 21:57:00,49.5,32.0,29.98,West,265,2.0,3.0,51,0.00,,,0.00,meteohub,2013-05-13 01:57:00,
2013-05-12 22:02:00,49.3,32.0,29.98,West,265,2.0,3.0,51,0.00,,,0.00,meteohub,2013-05-13 02:02:00,
2013-05-12 22:07:00,49.1,31.8,29.98,West,265,2.0,3.0,51,0.00,,,0.00,meteohub,2013-05-13 02:07:00,
2013-05-12 22:12:00,48.7,31.8,29.99,West,265,2.0,3.0,52,0.00,,,0.00,meteohub,2013-05-13 02:12:00,
2013-05-12 22:17:00,48.7,31.5,29.99,West,265,1.0,3.0,51,0.00,,,0.00,meteohub,2013-05-13 02:17:00,
2013-05-12 22:22:00,48.6,31.8,29.99,West,265,2.0,3.0,52,0.00,,,0.00,meteohub,2013-05-13 02:22:00,
2013-05-12 22:27:00,48.4,31.6,29.99,West,265,2.0,3.0,52,0.00,,,0.00,meteohub,2013-05-13 02:27:00,
2013-05-12 22:32:00,48.4,31.1,29.99,West,265,2.0,3.0,51,0.00,,,0.00,meteohub,2013-05-13 02:32:00,
2013-05-12 22:37:00,48.2,31.8,29.99,West,265,1.0,3.0,53,0.00,,,0.00,meteohub,2013-05-13 02:37:00,
2013-05-12 22:42:00,48.0,31.3,29.99,West,265,0.0,3.0,52,0.00,,,0.00,meteohub,2013-05-13 02:42:00,
2013-05-12 22:47:00,48.0,32.2,29.99,West,265,1.0,2.0,54,0.00,,,0.00,meteohub,2013-05-13 02:47:00,
2013-05-12 22:52:00,47.8,31.5,30.00,West,265,2.0,2.0,53,0.00,,,0.00,meteohub,2013-05-13 02:52:00,
2013-05-12 22:57:00,47.5,31.6,30.00,West,265,2.0,2.0,54,0.00,,,0.00,meteohub,2013-05-13 02:57:00,
2013-05-12 23:02:00,47.5,30.7,30.00,West,265,2.0,3.0,52,0.00,,,0.00,meteohub,2013-05-13 03:02:00,
2013-05-12 23:07:00,47.5,30.7,30.00,West,265,2.0,3.0,52,0.00,,,0.00,meteohub,2013-05-13 03:07:00,
2013-05-12 23:12:00,47.3,31.1,30.00,West,265,1.0,3.0,53,0.00,,,0.00,meteohub,2013-05-13 03:12:00,
2013-05-12 23:17:00,47.1,32.2,30.00,West,265,1.0,3.0,56,0.00,,,0.00,meteohub,2013-05-13 03:17:00,
2013-05-12 23:22:00,46.9,32.0,30.00,West,265,1.0,3.0,56,0.00,,,0.00,meteohub,2013-05-13 03:22:00,
2013-05-12 23:27:00,46.4,32.0,30.00,West,265,1.0,2.0,57,0.00,,,0.00,meteohub,2013-05-13 03:27:00,
2013-05-12 23:32:00,46.0,32.0,30.00,West,265,2.0,2.0,58,0.00,,,0.00,meteohub,2013-05-13 03:32:00,
2013-05-12 23:37:00,45.9,32.4,30.00,West,265,1.0,2.0,59,0.00,,,0.00,meteohub,2013-05-13 03:37:00,
2013-05-12 23:42:00,45.7,33.1,30.01,West,265,1.0,2.0,61,0.00,,,0.00,meteohub,2013-05-13 03:42:00,
2013-05-12 23:47:00,45.3,31.8,30.01,West,265,2.0,2.0,59,0.00,,,0.00,meteohub,2013-05-13 03:47:00,
2013-05-12 23:52:00,45.1,31.3,30.01,West,265,1.0,2.0,58,0.00,,,0.00,meteohub,2013-05-13 03:52:00,
2013-05-12 23:57:00,45.1,30.7,30.01,SW,232,1.0,2.0,57,0.00,,,0.00,meteohub,2013-05-13 03:57:00,